#timestamp,LO_Frequency,Hit 
1500580815.7,286046977.7,N
1500580835.6,286046978.2,N
1500580855.4,286046979.8,N
1500580875.2,286046981.7,N
1500580895.1,286046981.4,N
1500580896.0,286046981.4,N
1500580915.8,286046983.6,N
1500580935.6,286046983.2,N
1500580955.5,286046981.3,N
1500580975.3,286046979.5,N
1500580995.1,286046982.0,N
1500581015.9,286046981.1,N
1500581035.7,286046981.6,N
1500581055.5,286046980.2,N
1500581075.3,286046979.8,N
1500581095.2,286046978.2,N
1500581115.0,286046979.9,N
1500581115.9,286046979.9,N
1500581135.7,286046977.4,N
1500581155.6,286046977.8,N
1500581175.4,286046978.5,N
1500581195.2,286046976.1,N
1500581215.1,286046978.7,N
1500581216.0,286046978.7,N
1500581235.8,286046977.6,N
1500581255.6,286046979.4,N
1500581275.5,286046979.4,N
1500581295.3,286046980.3,N
1500581315.1,286046978.0,N
1500581335.9,286046979.7,N
1500581355.7,286046979.8,N
1500581375.5,286046977.3,N
1500581395.4,286046979.4,N
1500581415.2,286046981.7,N
1500581435.0,286046980.8,N
1500581435.9,286046980.8,N
1500581455.8,286046980.9,N
1500581475.6,286046982.4,N
1500581495.4,286046980.5,N
1500581515.3,286046982.7,N
1500581535.1,286046982.9,N
1500581536.0,286046982.9,N
1500581555.8,286046981.2,N
1500581575.7,286046981.3,N
1500581595.5,286046981.0,N
1500581615.3,286046981.4,N
1500581635.2,286046981.4,N
1500581655.9,286046981.9,N
1500581675.7,286046982.0,N
1500581695.6,286046983.6,N
1500581715.4,286046981.9,N
1500581735.2,286046985.0,N
1500581755.1,286046986.2,N
1500581756.0,286046986.2,N
1500581775.8,286046988.4,N
1500581795.6,286046988.2,N
1500581815.4,286046985.5,N
1500581835.3,286046988.3,N
1500581855.1,286046987.0,N
1500581875.8,286046988.0,N
1500581895.7,286046987.3,N
1500581915.5,286046986.9,N
1500581935.3,286046986.2,N
1500581955.2,286046986.4,N
1500581975.0,286046982.3,N
1500581975.9,286046982.3,N
1500581995.7,286046984.7,N
1500582015.6,286046986.2,N
1500582035.4,286046986.4,N
1500582055.2,286046986.8,N
1500582075.1,286046988.1,N
1500582076.0,286046988.1,N
1500582095.8,286046983.8,N
1500582115.6,286046986.7,N
1500582135.5,286046987.7,N
1500582155.3,286046988.1,N
1500582175.1,286046986.2,N
1500582195.9,286046985.4,N
1500582215.7,286046989.2,N
1500582235.5,286046990.3,N
1500582255.4,286046991.0,N
1500582275.2,286046989.4,N
1500582295.0,286046991.5,N
1500582295.9,286046991.5,N
1500582315.8,286046990.6,N
1500582335.6,286046989.1,N
1500582355.4,286046990.4,N
1500582375.3,286046987.1,N
1500582395.1,286046987.7,N
1500582396.0,286046987.7,N
1500582415.8,286046989.7,N
1500582435.7,286046991.4,N
1500582455.5,286046991.4,N
1500582475.3,286046988.7,N
1500582495.1,286046988.8,N
1500582515.9,286046989.4,N
1500582535.7,286046988.2,N
1500582555.5,286046988.3,N
1500582575.4,286046989.2,N
1500582595.2,286046989.9,N
1500582615.0,286046989.1,N
1500582615.9,286046989.1,N
1500582635.8,286046989.7,N
1500582655.6,286046989.2,N
1500582675.4,286046989.3,N
1500582695.3,286046989.4,N
1500582715.1,286046993.1,N
1500582735.8,286046988.6,N
1500582755.7,286046991.0,N
1500582775.5,286046993.1,N
1500582795.3,286046992.3,N
1500582815.2,286046993.5,N
1500582835.9,286046994.6,N
1500582855.7,286046992.0,N
1500582875.6,286046992.7,N
1500582895.4,286046992.3,N
1500582915.2,286046994.0,N
1500582935.1,286046995.8,N
1500582936.0,286046995.8,N
1500582955.8,286046997.5,N
1500582975.6,286046997.7,N
1500582995.5,286046995.6,N
1500583015.3,286046993.9,N
1500583035.1,286046994.2,N
1500583055.9,286046993.8,N
1500583075.7,286046997.8,N
1500583095.5,286046997.6,N
1500583115.4,286046996.0,N
1500583135.2,286046994.6,N
1500583155.0,286046995.7,N
1500583155.9,286046995.7,N
1500583175.8,286046997.9,N
1500583195.6,286046995.2,N
1500583215.4,286046997.3,N
1500583235.2,286046997.3,N
1500583255.1,286046995.2,N
1500583256.0,286046995.2,N
1500583275.8,286046996.7,N
1500583295.6,286046997.2,N
1500583315.5,286046995.1,N
1500583335.3,286046996.5,N
1500583355.1,286047001.0,N
1500583375.9,286046998.1,N
1500583395.7,286047001.0,N
1500583415.5,286046997.0,N
1500583435.4,286046997.0,N
1500583455.2,286047001.0,N
1500583475.0,286047000.2,N
1500583475.9,286047000.2,N
1500583495.8,286046998.3,N
1500583515.6,286046998.5,N
1500583535.4,286047001.5,N
1500583555.3,286047001.7,N
1500583575.1,286047001.7,N
1500583595.8,286046999.9,N
1500583615.7,286047004.4,N
1500583635.5,286047001.6,N
1500583655.3,286047000.1,N
1500583675.2,286047002.6,N
1500583695.9,286047002.9,N
1500583715.7,286047005.5,N
1500583735.6,286047007.6,N
1500583755.4,286047008.6,N
1500583775.2,286047004.6,N
1500583795.1,286047002.9,N
1500583796.0,286047002.9,N
1500583815.8,286047002.9,N
1500583835.6,286047007.1,N
1500583855.5,286047005.6,N
1500583875.3,286047007.0,N
1500583895.1,286047005.8,N
1500583915.9,286047005.4,N
1500583935.7,286047005.8,N
1500583955.5,286047003.3,N
1500583975.3,286047003.8,N
1500583995.2,286047001.7,N
1500584015.0,286047005.9,N
1500584015.9,286047005.9,N
1500584035.7,286047002.9,N
1500584055.6,286047005.6,N
1500584075.4,286047003.4,N
1500584095.2,286047001.3,N
1500584115.1,286047002.7,N
1500584116.0,286047002.7,N
1500584135.8,286047002.2,N
1500584155.6,286046999.8,N
1500584175.5,286046999.9,N
1500584195.3,286047000.0,N
1500584215.1,286047000.4,N
1500584235.9,286047001.9,N
1500584255.7,286047002.3,N
1500584275.5,286047001.4,N
1500584295.4,286047001.7,N
1500584315.2,286047001.7,N
1500584335.0,286047004.2,N
1500584335.9,286047004.2,N
1500584355.8,286047004.3,N
1500584375.6,286047001.3,N
1500584395.4,286047003.5,N
